User: anonymous   Login
Location: Unspecified
(0.0000°N, 0.0000°E)
Time: 07:13:17
(UTC+00:00)
Language:

Okean 1-7 - Orbit

View from above orbital plane
View from above orbital plane
View from above satellite
View from above satellite

Ground track
Ground track

The orbit data is extracted from the following two-line orbital elements,

1 23317U 94066A   17178.89746265 +.00000216 +00000-0 +21038-4 0  9999
2 23317 082.5385 108.2446 0020800 033.2784 326.9736 14.87410910227542
Epoch (UTC): 27 June 2017 21:32:20
Eccentricity: 0.0020800
inclination: 82.5385°
perigee height: 591 km
apogee height: 620 km
right ascension of ascending node: 108.2446°
argument of perigee: 33.2784°
revolutions per day: 14.87410910
mean anomaly at epoch: 326.9736°
orbit number at epoch: 22754

The dashed part of the orbit path shows where the satellite is in the earth's shadow,  

DLR